Location: Butte
(46.0040°N, 112.5340°W)
Time: 05:31:12
(UTC-07:00)

Daily predictions for brighter satellites

Satellite Brightness Start Highest point End
(mag) Time Altitude Azimuth Time Altitude Azimuth Time Altitude Azimuth
ADEOS Rocket 4.5 03:09:07 10° NNE 03:13:03 35° NE 03:13:03 35° NE
Cosmos 2369 Rocket 4.2 03:25:33 24° ENE 03:25:33 24° ENE 03:28:38 10° NE
ATLAS 5 CENTAUR R/B 3.5 04:04:12 29° E 04:04:12 29° E 04:07:45 10° NE
Cosmos 1943 Rocket 3.5 04:09:50 31° SE 04:10:51 33° ESE 04:15:45 10° NE
CZ-4B R/B 3.9 04:06:17 10° NNE 04:11:45 51° E 04:12:00 51° ESE
ATLAS CENTAUR R/B 3.6 04:15:19 59° SSE 04:15:19 59° SSE 04:26:18 10° SE
Cosmos 2056 Rocket 4.5 04:14:51 42° E 04:14:51 42° E 04:19:33 10° NE
Cosmos 1371 Rocket 4.0 04:43:28 70° N 04:43:28 70° N 04:48:05 10° NNE
PAYLOAD B 4.1 04:37:59 10° NNE 04:43:34 83° WNW 04:43:39 83° W
Thor Agena Rocket 4.3 04:41:10 10° SE 04:46:13 53° ENE 04:51:14 10° N
ADEOS II 1.9 04:42:38 10° NNE 04:47:56 88° WNW 04:48:14 80° SSW
Meteor 1-31 Rocket 4.2 04:45:28 10° NNE 04:49:08 37° E 04:50:24 29° SE
Lacrosse 5 2.3 04:49:14 49° SSE 04:49:54 53° SE 04:54:51 10° ENE
Okean O Rocket 3.2 04:48:34 10° N 04:50:28 25° N 04:50:28 25° N
USA 234 3.4 04:48:26 10° NE 04:54:58 70° SE 04:57:36 38° SSW
CZ-4B DEB 4.1 04:49:48 10° N 04:55:21 74° WNW 04:56:02 65° SW
Cosmos 2219 4.2 04:55:14 10° NNW 05:00:45 47° ENE 05:06:10 10° SE
ADEOS Rocket 4.2 04:55:13 10° N 05:00:00 27° NW 05:00:00 27° NW
CZ-2D R/B 4.4 05:03:02 10° NNW 05:03:05 10° NNW 05:03:05 10° NNW
Cosmos 2369 Rocket 2.4 05:07:22 49° WNW 05:07:38 49° WNW 05:13:08 10° NNE
Meteor PRIRODA 4.1 05:06:09 10° NNE 05:09:03 53° N 05:09:03 53° N
Cosmos 407 Rocket 3.5 05:08:27 39° NW 05:10:18 61° WSW 05:15:33 10° S
COSMO-SKYMED 1 3.8 05:06:56 10° SE 05:11:02 42° ENE 05:15:09 10° N
Cosmos 2221 Rocket 4.3 05:08:19 10° S 05:12:47 56° E 05:17:16 10° NNE
IRAS Rocket 4.4 05:08:56 10° N 05:14:08 46° WNW 05:14:31 45° WNW
Cosmos 676 Rocket 3.9 05:08:50 10° NNW 05:14:09 80° WSW 05:19:29 10° SSE
CZ-4B R/B 4.0 05:12:23 10° NNE 05:16:20 74° ESE 05:19:03 20° S
Cosmos 1656 Rocket 4.4 05:11:39 10° S 05:17:09 53° ESE 05:22:41 10° NE
Cosmos 972 Rocket 4.2 05:18:46 47° W 05:19:29 51° WNW 05:24:55 10° N
Abrixas 3.4 05:22:05 45° NE 05:22:05 45° NE 05:24:15 10° ENE
Nadezhda 2 Rocket 4.4 05:15:37 10° NNW 05:21:36 59° W 05:27:35 10° S
Cosmos 2266 Rocket 4.4 05:17:43 10° NNW 05:22:50 36° WNW 05:22:50 36° WNW
Cosmos 1933 4.4 05:25:12 30° NNW 05:25:12 30° NNW 05:27:44 10° N
Cosmos 1833 4.3 05:23:53 20° NW 05:27:33 51° WSW 05:32:56 10° S
Cosmos 1140 Rocket 3.4 05:25:53 10° NNW 05:31:09 89° E 05:36:23 10° SSE
ERS-2 3.4 05:30:40 10° N 05:32:56 27° NNW 05:32:56 27° NNW
Cosmos 1867 4.4 05:32:55 30° WNW 05:34:06 33° NW 05:39:03 10° NNE
Lacrosse 5 rocket 2.8 05:32:40 17° NNW 05:34:34 26° NNE 05:37:39 10° E
Okean 1-7 3.0 05:32:56 10° S 05:37:13 85° E 05:41:30 10° N
Sich 1 Rocket 4.1 05:33:40 10° NNW 05:37:53 37° W 05:42:00 10° SSW
Tiangong 1 2.5 05:39:12 24° S 05:39:43 26° SSE 05:42:14 10° ESE
Cosmos 614 Rocket 4.0 05:34:52 10° NNW 05:39:59 83° ENE 05:45:07 10° SSE
Cosmos 1908 Rocket 4.0 05:35:52 10° NNW 05:40:00 37° W 05:44:07 10° SSW
Cosmos 1745 Rocket 4.0 05:38:54 10° N 05:45:06 87° E 05:51:14 10° S
Cosmos 1782 Rocket 3.6 05:41:15 10° NNW 05:45:38 54° W 05:49:58 10° S
Okean-O 2.8 05:42:56 10° N 05:47:14 50° WNW 05:50:57 13° SW
ATLAS 5 CENTAUR R/B 2.3 05:45:45 29° W 05:47:47 44° NW 05:52:51 10° NNE
Cosmos 1417 Rocket 4.4 05:41:50 10° SSW 05:47:59 71° W 05:54:09 10° N
Meteor 2-10 Rocket 3.5 05:45:45 10° SSW 05:50:39 56° WNW 05:55:39 10° N
Meteor 1-28 Rocket 3.2 05:47:22 10° SSE 05:51:05 79° ENE 05:54:51 10° N
CZ-4B R/B 4.2 05:47:22 10° N 05:52:01 28° WNW 05:53:55 23° W
Radarsat Rocket 4.5 05:45:22 10° NNE 05:52:53 82° ESE 05:59:24 10° SSW
Cosmos 1943 Rocket 2.6 05:51:24 22° WSW 05:54:28 41° NW 05:59:44 10° NNE
Meteor 1-20 Rocket 4.2 05:49:25 10° NNW 05:55:11 81° W 06:00:48 10° S
Cosmos 1850 Rocket 4.0 05:50:59 10° NNW 05:56:22 86° WSW 06:01:40 10° SSE
Cosmos 2056 Rocket 4.4 05:55:13 23° W 05:56:57 28° WNW 06:01:27 10° N
Cosmos 1782 3.0 05:53:33 10° S 05:57:29 72° E 06:01:28 10° NNE
SKYMED 2 3.5 05:54:46 10° S 05:59:04 61° W 06:03:23 10° NNW
IDEFIX/ARIANE 42P 4.5 05:59:24 10° NNE 06:04:08 34° E 06:08:49 10° SSE
NOAA 6 4.1 06:03:04 10° N 06:08:09 58° WNW 06:13:11 10° SSW
Ariane Rocket 3.5 06:03:25 10° NNE 06:08:30 65° ESE 06:13:31 10° S
Okean 2 Rocket 3.4 06:04:27 10° NNW 06:08:36 41° W 06:12:43 10° SSW
CZ-4C R/B 2.2 06:04:33 10° SW 06:09:54 79° NW 06:16:03 10° NE
BREEZE M DEB (TANK) 3.9 05:59:47 16° W 06:10:36 69° NNW 06:14:47 10° ENE
CSL-04 Rocket 4.3 06:05:29 10° NNE 06:10:48 60° ESE 06:16:10 10° S
Cosmos 1420 Rocket 3.9 06:08:18 10° SSW 06:13:27 70° WNW 06:18:39 10° NNE
Cosmos 1606 2.8 06:09:37 10° S 06:13:29 84° E 06:17:25 10° N
Cosmos 1674 Rocket 4.5 06:10:17 10° S 06:14:33 53° E 06:18:53 10° NNE
Meteor 1-31 Rocket 4.2 06:20:32 10° NNW 06:23:21 19° WNW 06:25:51 11° WSW
ADEOS II 3.7 06:24:06 10° NNW 06:26:54 15° WNW 06:29:11 11° W
Cosmos 2151 Rocket 3.7 06:23:22 10° NNW 06:27:48 55° W 06:32:11 10° S
Meteor 2-6 Rocket 4.1 06:22:25 10° SSW 06:27:48 82° W 06:33:16 10° N
CZ-4 R/B 2.7 06:25:37 10° NNE 06:29:39 46° E 06:33:38 10° S
Okean 1 Rocket 3.8 06:25:36 10° N 06:30:00 59° ENE 06:34:19 10° SSE
Cosmos 2297 Rocket 2.8 06:26:17 10° NNW 06:31:54 60° ENE 06:37:28 10° SE
Lacrosse 5 2.5 06:28:28 11° W 06:33:03 41° NNW 06:37:52 10° NE
S3M 4.4 06:30:01 10° SW 06:35:59 41° WNW 06:41:53 10° N
USA 234 3.6 06:31:35 10° NE 06:37:49 50° NNW 06:44:04 10° W
Cosmos 1452 Rocket 4.4 06:33:41 10° WSW 06:38:17 30° WNW 06:42:56 10° N
Cosmos 1607 4.2 06:33:40 10° SSW 06:39:46 76° ESE 06:45:58 10° NE
CSL-04 Debris 4.2 06:34:47 10° NNE 06:40:14 90° SE 06:45:38 10° SSW
Cosmos 2219 4.0 06:39:49 10° NW 06:44:40 30° WSW 06:49:28 10° SSW
Cosmos 1110 Rocket 4.3 06:41:25 10° SSW 06:46:33 74° ESE 06:51:44 10° NNE
COSMO-SKYMED 1 3.9 06:44:10 10° SW 06:47:23 20° W 06:50:37 10° NW
Meteor 1-11 Rocket 3.9 06:44:31 10° NNW 06:50:28 69° W 06:56:18 10° S
Cosmos 2227 Rocket 2.2 06:46:06 10° NNW 06:51:48 78° WSW 06:57:27 10° SSE
